KLM35T KMCO-EHAM

Flight info

Callsign KLM35T
Flight time N/A
Altitude 37000
Route JEEMY4 PAINN SHRKS BERTT GURGE RAYVO Q87 NOWAE FAK BOOYA Q34 RBV Q22 LLUND BIZEX Q133 CAM BEEHS JIGZY HULTN N611A SAXAN 5250N 5340N 5330N 5320N MALOT GISTI ENJEX ADHAV AXNEF ZIPWE OZZIL SAWPE L179 ICTAM M197 REDFA
Aircraft A359/H-SDE2E3GHIJ3J4J5LM1ORWXY/LB1D1

Departure

Time 2026-04-25 12:01
Airport Orlando International Airport (KMCO)

Arrival

Time N/A
Airport Amsterdam Airport Schiphol (EHAM)
Time Latitude Longitude Altitude Speed Heading
2026-04-25 11:00 28.42750 -81.30029 101 ft 0 kts 302°
2026-04-25 11:35 28.42737 -81.30006 100 ft 4 kts 302°
2026-04-25 11:36 28.42724 -81.29979 99 ft 4 kts 302°
2026-04-25 11:36 28.42710 -81.29953 100 ft 4 kts 301°
2026-04-25 11:36 28.42696 -81.29927 99 ft 4 kts 301°
2026-04-25 11:36 28.42686 -81.29909 100 ft 4 kts 282°
2026-04-25 11:37 28.42684 -81.29892 100 ft 4 kts 232°
2026-04-25 11:37 28.42694 -81.29882 99 ft 4 kts 181°
2026-04-25 11:37 28.42720 -81.29882 99 ft 4 kts 180°
2026-04-25 11:37 28.42727 -81.29882 101 ft 0 kts 180°
2026-04-25 11:41 28.42696 -81.29882 102 ft 11 kts 180°
2026-04-25 11:41 28.42614 -81.29863 103 ft 2 kts 134°
2026-04-25 11:46 28.42606 -81.29841 103 ft 8 kts 105°
2026-04-25 11:46 28.42595 -81.29751 103 ft 12 kts 111°
2026-04-25 11:46 28.42532 -81.29707 103 ft 11 kts 171°
2026-04-25 11:47 28.42447 -81.29701 103 ft 15 kts 178°
2026-04-25 11:47 28.42321 -81.29698 102 ft 21 kts 179°
2026-04-25 11:47 28.42186 -81.29728 104 ft 19 kts 231°
2026-04-25 11:47 28.42182 -81.29770 102 ft 4 kts 305°
2026-04-25 11:48 28.42275 -81.29870 102 ft 24 kts 284°
2026-04-25 11:48 28.42278 -81.30052 101 ft 23 kts 270°
2026-04-25 11:48 28.42276 -81.30237 101 ft 24 kts 269°
2026-04-25 11:48 28.42269 -81.30422 101 ft 23 kts 267°
2026-04-25 11:49 28.42258 -81.30606 105 ft 23 kts 265°
2026-04-25 11:49 28.42245 -81.30787 102 ft 24 kts 265°
2026-04-25 11:49 28.42234 -81.30975 103 ft 24 kts 269°
2026-04-25 11:49 28.42252 -81.31161 102 ft 24 kts 279°
2026-04-25 11:50 28.42258 -81.31207 103 ft 0 kts 278°
2026-04-25 11:50 28.42264 -81.31253 101 ft 11 kts 276°
2026-04-25 11:50 28.42267 -81.31379 101 ft 19 kts 270°
2026-04-25 11:51 28.42266 -81.31555 103 ft 25 kts 269°
2026-04-25 11:51 28.42264 -81.31774 105 ft 30 kts 269°
2026-04-25 11:51 28.42289 -81.31968 107 ft 19 kts 319°
2026-04-25 11:51 28.42412 -81.31990 110 ft 20 kts 359°
2026-04-25 11:52 28.42572 -81.31991 110 ft 26 kts 360°
2026-04-25 11:52 28.42774 -81.31992 107 ft 33 kts 359°
2026-04-25 11:52 28.43010 -81.31994 106 ft 34 kts 359°
2026-04-25 11:52 28.43232 -81.31996 105 ft 30 kts 360°
2026-04-25 11:53 28.43440 -81.32001 106 ft 30 kts 359°
2026-04-25 11:53 28.43648 -81.32003 104 ft 30 kts 360°
2026-04-25 11:53 28.43853 -81.32005 105 ft 30 kts 359°
2026-04-25 11:53 28.44063 -81.32007 105 ft 30 kts 360°
2026-04-25 11:54 28.44270 -81.32009 104 ft 30 kts 359°
2026-04-25 11:54 28.44478 -81.32011 106 ft 30 kts 360°
2026-04-25 11:54 28.44608 -81.32012 107 ft 0 kts 359°
2026-04-25 11:57 28.44616 -81.32012 105 ft 4 kts 359°
2026-04-25 11:57 28.44670 -81.32014 106 ft 11 kts 351°
2026-04-25 11:57 28.44714 -81.32080 114 ft 11 kts 273°
2026-04-25 11:58 28.44713 -81.32113 105 ft 0 kts 269°
2026-04-25 11:59 28.44713 -81.32147 104 ft 8 kts 269°
2026-04-25 12:00 28.44614 -81.32230 104 ft 0 kts 179°
2026-04-25 12:00 28.44532 -81.32228 105 ft 6 kts 179°
2026-04-25 12:01 28.44319 -81.32226 106 ft 63 kts 179°
2026-04-25 12:01 28.43649 -81.32218 106 ft 127 kts 179°
2026-04-25 12:01 28.42589 -81.32203 220 ft 169 kts 178°
2026-04-25 12:01 28.41452 -81.32175 1048 ft 157 kts 179°
2026-04-25 12:02 28.39147 -81.32451 1807 ft 186 kts 198°
2026-04-25 12:02 28.37902 -81.33113 1944 ft 211 kts 212°
2026-04-25 12:02 28.36565 -81.33999 2208 ft 234 kts 209°
2026-04-25 12:03 28.35132 -81.35014 2581 ft 250 kts 220°
2026-04-25 12:03 28.33905 -81.36472 2921 ft 261 kts 230°
2026-04-25 12:03 28.32752 -81.38075 3017 ft 262 kts 231°
2026-04-25 12:03 28.31667 -81.39739 3004 ft 263 kts 241°
2026-04-25 12:04 28.31115 -81.41711 3182 ft 265 kts 261°
2026-04-25 12:04 28.30863 -81.43797 3723 ft 268 kts 263°
2026-04-25 12:04 28.30641 -81.45893 4484 ft 267 kts 263°
2026-04-25 12:04 28.30500 -81.48003 5186 ft 269 kts 273°
2026-04-25 12:05 28.31017 -81.50030 5857 ft 271 kts 300°
2026-04-25 12:05 28.32247 -81.51640 6515 ft 272 kts 320°
2026-04-25 12:05 28.33740 -81.52978 6895 ft 274 kts 324°
2026-04-25 12:05 28.35261 -81.54250 7004 ft 275 kts 323°
2026-04-25 12:06 28.36937 -81.55355 7000 ft 277 kts 340°
2026-04-25 12:06 28.38811 -81.55815 7157 ft 277 kts 352°
2026-04-25 12:06 28.40707 -81.56070 7628 ft 280 kts 353°
2026-04-25 12:06 28.42018 -81.56225 8170 ft 280 kts 353°
2026-04-25 12:07 28.44216 -81.56474 9102 ft 280 kts 353°
2026-04-25 12:07 28.46086 -81.56671 9857 ft 282 kts 353°
2026-04-25 12:07 28.48062 -81.56868 10412 ft 291 kts 353°
2026-04-25 12:07 28.50139 -81.57053 10721 ft 309 kts 356°
2026-04-25 12:08 28.52340 -81.56828 11014 ft 328 kts 11°
2026-04-25 12:08 28.54596 -81.56127 11325 ft 344 kts 15°
2026-04-25 12:08 28.56941 -81.55294 11615 ft 359 kts 15°
2026-04-25 12:08 28.59369 -81.54416 11940 ft 371 kts 15°
2026-04-25 12:09 28.61850 -81.53515 12463 ft 377 kts 16°
2026-04-25 12:09 28.64360 -81.52599 13036 ft 380 kts 15°
2026-04-25 12:09 28.66892 -81.51674 13600 ft 384 kts 15°
2026-04-25 12:09 28.69446 -81.50743 14112 ft 387 kts 15°
2026-04-25 12:10 28.72060 -81.49788 14585 ft 391 kts 15°
2026-04-25 12:10 28.74631 -81.48849 15055 ft 394 kts 15°
2026-04-25 12:10 28.77250 -81.47891 15545 ft 397 kts 15°
2026-04-25 12:10 28.79896 -81.46923 16035 ft 400 kts 15°
2026-04-25 12:11 28.82558 -81.45950 16534 ft 404 kts 15°
2026-04-25 12:11 28.85244 -81.44967 17042 ft 407 kts 15°
2026-04-25 12:11 28.87949 -81.43976 17549 ft 410 kts 15°
2026-04-25 12:11 28.90674 -81.42976 18064 ft 413 kts 15°
2026-04-25 12:12 28.93425 -81.41990 18547 ft 416 kts 13°
2026-04-25 12:12 28.95339 -81.41546 18845 ft 415 kts
2026-04-25 12:12 28.99151 -81.41662 19488 ft 415 kts 352°
2026-04-25 12:12 29.02035 -81.41997 19955 ft 418 kts 352°
2026-04-25 12:13 29.04975 -81.42342 20429 ft 421 kts 352°
2026-04-25 12:13 29.07859 -81.42672 20901 ft 423 kts 352°
2026-04-25 12:13 29.10799 -81.43003 21381 ft 426 kts 352°
2026-04-25 12:13 29.12800 -81.43208 21701 ft 428 kts 353°
2026-04-25 12:14 29.16788 -81.43577 22341 ft 432 kts 353°
2026-04-25 12:14 29.18783 -81.43762 22648 ft 434 kts 353°
2026-04-25 12:14 29.21807 -81.44045 23129 ft 438 kts 353°
2026-04-25 12:14 29.25843 -81.44426 23730 ft 442 kts 353°
2026-04-25 12:15 29.27917 -81.44622 23990 ft 444 kts 353°
2026-04-25 12:15 29.32006 -81.45011 24566 ft 447 kts 354°
2026-04-25 12:15 29.34106 -81.45210 24858 ft 449 kts 354°
2026-04-25 12:15 29.37227 -81.45507 25293 ft 451 kts 354°
2026-04-25 12:16 29.40360 -81.45805 25710 ft 454 kts 354°
2026-04-25 12:16 29.43471 -81.46101 26145 ft 456 kts 354°
2026-04-25 12:16 29.46639 -81.46404 26551 ft 458 kts 354°
2026-04-25 12:16 29.49822 -81.46708 26953 ft 461 kts 354°
2026-04-25 12:17 29.62879 -81.47943 28579 ft 470 kts 355°
2026-04-25 12:18 29.66152 -81.48235 28959 ft 472 kts 355°
2026-04-25 12:18 29.69432 -81.48529 29337 ft 474 kts 355°
2026-04-25 12:18 29.72730 -81.48827 29701 ft 476 kts 355°
2026-04-25 12:18 29.76038 -81.49126 30045 ft 478 kts 355°
2026-04-25 12:19 29.81576 -81.49629 30518 ft 481 kts 355°
2026-04-25 12:19 29.86030 -81.50037 31048 ft 480 kts 355°
2026-04-25 12:19 29.89336 -81.50557 31408 ft 479 kts 348°
2026-04-25 12:20 29.92559 -81.51516 31780 ft 478 kts 344°
2026-04-25 12:20 29.95751 -81.52608 32141 ft 478 kts 343°
2026-04-25 12:20 29.98922 -81.53749 32490 ft 477 kts 342°
2026-04-25 12:20 30.02048 -81.54893 32833 ft 477 kts 342°
2026-04-25 12:21 30.05245 -81.56063 33177 ft 476 kts 342°
2026-04-25 12:21 30.08400 -81.57212 33526 ft 475 kts 342°
2026-04-25 12:21 30.11557 -81.58354 33856 ft 475 kts 342°
2026-04-25 12:21 30.14702 -81.59486 34142 ft 474 kts 343°
2026-04-25 12:22 30.17804 -81.60599 34448 ft 473 kts 343°
2026-04-25 12:22 30.20950 -81.61728 34780 ft 471 kts 343°
2026-04-25 12:22 30.23957 -81.62806 35090 ft 469 kts 343°
2026-04-25 12:22 30.27142 -81.63949 35286 ft 462 kts 343°
2026-04-25 12:23 30.30189 -81.65044 35047 ft 457 kts 343°
2026-04-25 12:23 30.36330 -81.67255 34980 ft 468 kts 343°
2026-04-25 12:24 30.42586 -81.69509 34961 ft 470 kts 343°
2026-04-25 12:24 30.48831 -81.71762 34962 ft 470 kts 343°
2026-04-25 12:25 30.55070 -81.74017 34962 ft 470 kts 343°
2026-04-25 12:25 30.61390 -81.75921 34964 ft 470 kts 352°
2026-04-25 12:26 30.67905 -81.75970 34963 ft 470 kts
2026-04-25 12:26 30.74415 -81.75217 34960 ft 470 kts